| time (UTC) | temp C | wind direction | speed KPH | gust KPH | rain 1hr cm | rain 24hr cm | rain mn cm | humidity % | barometer mb |
| 20260505090056 | 12 | 175 | 1.6 | 6.4 | 0.00 | 0.00 | 0.00 | 83 | 1013.6 |
| 20260505084552 | 12 | 187 | 1.6 | 6.4 | 0.00 | 0.00 | 0.00 | 83 | 1013.3 |
| 20260505083053 | 13 | 333 | 1.6 | 6.4 | 0.00 | 0.00 | 0.00 | 82 | 1013.3 |
| 20260505081554 | 13 | 200 | 1.6 | 6.4 | 0.00 | 0.00 | 0.00 | 82 | 1013.3 |
| 20260505080103 | 13 | 226 | 0.0 | 3.2 | 0.00 | 0.00 | 0.00 | 82 | 1013.2 |
| 20260505074553 | 13 | 0 | 0.0 | 6.4 | 0.00 | 0.00 | 0.00 | 81 | 1012.9 |
| 20260505073054 | 13 | 0 | 1.6 | 8.0 | 0.00 | 0.00 | 0.00 | 81 | 1012.9 |
| 20260505071548 | 13 | 205 | 0.0 | 6.4 | 0.00 | 0.00 | 0.00 | 81 | 1012.8 |
| 20260505070055 | 13 | 108 | 0.0 | 6.4 | 0.00 | 0.00 | 0.00 | 80 | 1012.7 |
| 20260505064550 | 14 | 139 | 0.0 | 4.8 | 0.00 | 0.00 | 0.00 | 79 | 1012.7 |
| 20260505063108 | 14 | 205 | 0.0 | 6.4 | 0.00 | 0.00 | 0.00 | 78 | 1012.6 |
| 20260505061548 | 15 | 198 | 0.0 | 8.0 | 0.00 | 0.00 | 0.00 | 77 | 1012.4 |
| 20260505060056 | 15 | 183 | 1.6 | 6.4 | 0.00 | 0.00 | 0.00 | 76 | 1012.1 |
| 20260505054608 | 15 | 196 | 0.0 | 6.4 | 0.00 | 0.00 | 0.00 | 74 | 1012.2 |
| 20260505053058 | 16 | 212 | 1.6 | 9.7 | 0.00 | 0.00 | 0.00 | 72 | 1012.1 |
| 20260505051550 | 17 | 182 | 1.6 | 4.8 | 0.00 | 0.00 | 0.00 | 70 | 1011.9 |
| 20260505041556 | 19 | 184 | 0.0 | 4.8 | 0.00 | 0.00 | 0.00 | 63 | 1011.1 |
| 20260505040058 | 20 | 205 | 1.6 | 11.3 | 0.00 | 0.00 | 0.00 | 60 | 1010.8 |
| 20260505034551 | 20 | 167 | 0.0 | 6.4 | 0.00 | 0.00 | 0.00 | 58 | 1010.6 |
| 20260505033053 | 21 | 170 | 1.6 | 6.4 | 0.00 | 0.00 | 0.00 | 55 | 1010.3 |
| 20260505031555 | 22 | 184 | 1.6 | 8.0 | 0.00 | 0.00 | 0.00 | 52 | 1010.1 |
| 20260505030051 | 23 | 214 | 1.6 | 6.4 | 0.00 | 0.00 | 0.00 | 51 | 1009.9 |
| 20260505024559 | 24 | 171 | 0.0 | 4.8 | 0.00 | 0.00 | 0.00 | 50 | 1009.6 |
| 20260505023052 | 25 | 181 | 0.0 | 4.8 | 0.00 | 0.00 | 0.00 | 46 | 1009.5 |
| 20260505021554 | 26 | 168 | 1.6 | 6.4 | 0.00 | 0.00 | 0.00 | 41 | 1009.6 |
| 20260505020053 | 28 | 186 | 1.6 | 4.8 | 0.00 | 0.00 | 0.00 | 38 | 1009.5 |
| 20260505014605 | 29 | 216 | 1.6 | 4.8 | 0.00 | 0.00 | 0.00 | 35 | 1009.6 |
| 20260505013053 | 30 | 193 | 1.6 | 6.4 | 0.00 | 0.00 | 0.00 | 33 | 1009.6 |
| 20260505011604 | 30 | 200 | 1.6 | 4.8 | 0.00 | 0.00 | 0.00 | 32 | 1009.8 |
| 20260505010051 | 30 | 208 | 0.0 | 8.0 | 0.00 | 0.00 | 0.00 | 29 | 1009.9 |
| 20260505004555 | 30 | 143 | 1.6 | 6.4 | 0.00 | 0.00 | 0.00 | 28 | 1009.8 |
| 20260505003056 | 30 | 179 | 1.6 | 4.8 | 0.00 | 0.00 | 0.00 | 28 | 1009.9 |
| 20260505001552 | 30 | 199 | 0.0 | 6.4 | 0.00 | 0.00 | 0.00 | 29 | 1010.0 |
| 20260505000109 | 30 | 154 | 1.6 | 4.8 | 0.00 | 0.00 | 0.00 | 27 | 1010.0 |
| 20260504234552 | 31 | 200 | 0.0 | 4.8 | 0.00 | 0.00 | 0.00 | 27 | 1010.0 |
| 20260504233105 | 30 | 185 | 0.0 | 4.8 | 0.00 | 0.00 | 0.00 | 29 | 1010.0 |
| 20260504231551 | 30 | 122 | 1.6 | 6.4 | 0.00 | 0.00 | 0.00 | 27 | 1009.9 |
| 20260504230054 | 30 | 174 | 0.0 | 4.8 | 0.00 | 0.00 | 0.00 | 28 | 1009.9 |
| 20260504224553 | 29 | 153 | 3.2 | 6.4 | 0.00 | 0.00 | 0.00 | 28 | 1010.3 |
| 20260504223122 | 28 | 176 | 1.6 | 6.4 | 0.00 | 0.00 | 0.00 | 31 | 1010.4 |
| 20260504221555 | 28 | 82 | 1.6 | 6.4 | 0.00 | 0.00 | 0.00 | 31 | 1010.7 |
| 20260504220057 | 28 | 168 | 1.6 | 4.8 | 0.00 | 0.00 | 0.00 | 33 | 1010.8 |
| 20260504214552 | 27 | 153 | 3.2 | 8.0 | 0.00 | 0.00 | 0.00 | 34 | 1010.9 |
| 20260504213103 | 27 | 349 | 1.6 | 6.4 | 0.00 | 0.00 | 0.00 | 34 | 1010.9 |
| 20260504211600 | 27 | 165 | 1.6 | 6.4 | 0.00 | 0.00 | 0.00 | 35 | 1010.9 |
| 20260504210058 | 27 | 200 | 1.6 | 8.0 | 0.00 | 0.00 | 0.00 | 34 | 1011.0 |
| 20260504204551 | 26 | 165 | 1.6 | 6.4 | 0.00 | 0.00 | 0.00 | 34 | 1011.1 |
| 20260504203107 | 26 | 207 | 1.6 | 8.0 | 0.00 | 0.00 | 0.00 | 35 | 1011.1 |
| 20260504201559 | 25 | 198 | 0.0 | 6.4 | 0.00 | 0.00 | 0.00 | 36 | 1010.9 |
| 20260504200107 | 25 | 152 | 1.6 | 4.8 | 0.00 | 0.00 | 0.00 | 37 | 1010.9 |
| 20260504194602 | 24 | 0 | 1.6 | 6.4 | 0.00 | 0.00 | 0.00 | 40 | 1011.1 |
| 20260504193056 | 23 | 167 | 1.6 | 4.8 | 0.00 | 0.00 | 0.00 | 41 | 1011.1 |
| 20260504191557 | 23 | 20 | 0.0 | 6.4 | 0.00 | 0.00 | 0.00 | 43 | 1011.2 |
| 20260504190053 | 23 | 141 | 1.6 | 4.8 | 0.00 | 0.00 | 0.00 | 46 | 1011.3 |
| 20260504184556 | 22 | 174 | 0.0 | 6.4 | 0.00 | 0.00 | 0.00 | 49 | 1011.3 |
| 20260504183053 | 21 | 184 | 1.6 | 4.8 | 0.00 | 0.00 | 0.00 | 51 | 1011.4 |
| 20260504181554 | 21 | 50 | 0.0 | 6.4 | 0.00 | 0.00 | 0.00 | 52 | 1011.4 |
| 20260504180056 | 21 | 162 | 0.0 | 6.4 | 0.00 | 0.00 | 0.00 | 52 | 1011.5 |
| 20260504174559 | 20 | 173 | 1.6 | 4.8 | 0.00 | 0.00 | 0.00 | 52 | 1011.5 |
| 20260504173052 | 20 | 174 | 0.0 | 6.4 | 0.00 | 0.00 | 0.00 | 52 | 1011.4 |
| 20260504171553 | 19 | 162 | 0.0 | 4.8 | 0.00 | 0.00 | 0.00 | 53 | 1011.4 |
| 20260504150108 | 13 | 0 | 0.0 | 1.6 | 0.00 | 0.00 | 0.00 | 81 | 1010.9 |
| 20260504100414 | 12 | 0 | 0.0 | 0.0 | 0.00 | 0.00 | 0.00 | 84 | 1009.8 |